This demonstration page uses our WeatherBlox Daily Observations layout. Learn more.

Left ArrowRight Arrow

36.17497, -115.13722

Hourly Observations for September 5, 2015

Temp ( °F °C ) Dew Point ( °F °C ) Humidity (%) Winds ( mph kmh ) Pressure ( in mb ) Visibility ( mi km ) Precip ( " mm )
12:53 am 00:53 Clear 81 27.2 32 undefined 17 17 SSW 12 19 29.75 1008 10 16 N/A
1:53 am 01:53 Clear 80 26.7 33 0.6 18 18 SW 17 28 29.75 1008 10 16 N/A
2:53 am 02:53 Clear 78 25.6 34 1.1 20 20 SSW 8 13 29.77 1008 10 16 N/A
3:53 am 03:53 Clear 78 25.6 35 1.7 21 21 VRB 3 6 29.78 1009 10 16 N/A
4:53 am 04:53 Clear 76 24.4 34 1.1 22 22 VRB 3 6 29.79 1009 10 16 N/A
5:53 am 05:53 Clear 76 24.4 34 1.1 22 22 S 9 15 29.80 1009 10 16 N/A
6:53 am 06:53 Sunny 73 22.8 36 2.2 26 26 ESE 5 7 29.83 1010 10 16 N/A
7:53 am 07:53 Sunny 76 24.4 37 2.8 24 24 E 9 15 29.85 1011 10 16 N/A
8:53 am 08:53 Sunny 80 26.7 35 1.7 20 20 S 13 20 29.85 1011 10 16 N/A
9:53 am 09:53 Sunny 82 27.8 36 2.2 19 19 S 14 22 29.86 1011 10 16 N/A
10:53 am 10:53 Sunny 87 30.6 36 2.2 16 16 S 21 33 29.85 1011 10 16 N/A
11:53 am 11:53 Sunny 88 31.1 32 undefined 13 13 S 13 20 29.85 1011 10 16 N/A
12:53 pm 12:53 Sunny 92 33.3 29 -1.7 10 10 WSW 16 26 29.82 1010 10 16 N/A
1:03 pm 13:03 Sunny 91 33 28 -2 10 10 SSW 12 19 29.68 1005 10 16 N/A
1:53 pm 13:53 Sunny 94 34.4 29 -1.7 10 10 SW 16 26 29.81 1010 10 16 N/A
2:53 pm 14:53 Sunny 95 35 25 -3.9 8 8 WSW 20 31 29.80 1009 10 16 N/A
3:53 pm 15:53 Sunny 94 34.4 26 -3.3 9 9 SSW 22 35 29.79 1009 10 16 N/A
4:53 pm 16:53 Sunny 93 33.9 24 -4.4 8 8 SW 21 33 29.79 1009 10 16 N/A
5:53 pm 17:53 Sunny 92 33.3 27 -2.8 10 10 SW 15 24 29.80 1009 10 16 N/A
6:53 pm 18:53 Sunny 90 32.2 26 -3.3 10 10 W 12 19 29.81 1010 10 16 N/A
7:53 pm 19:53 Clear 88 31.1 23 -5 9 9 WNW 8 13 29.82 1010 10 16 N/A
8:53 pm 20:53 Clear 86 30 24 -4.4 10 10 NW 6 9 29.84 1010 10 16 N/A
9:53 pm 21:53 Clear 83 28.3 27 -2.8 13 13 S 8 13 29.86 1011 10 16 N/A
10:53 pm 22:53 Clear 83 28.3 27 -2.8 13 13 S 7 11 29.86 1011 10 16 N/A
11:53 pm 23:53 Clear 80 26.7 26 -3.3 14 14 NNW 6 9 29.88 1012 10 16 N/A

Powered by AerisWeather